Weather History for Paganella, Italy

Change the Weather History Date:

Thursday, October 10, 2013

  Actual Average Record
Temperature  
Mean Temperature 36 °F -  
Max Temperature 39 °F 40 °F 53 °F (2006)
Min Temperature 33 °F 32 °F 30 °F (2011)
Degree Days  
Heating Degree Days 29    
Moisture  
Dew Point 37 °F    
Average Humidity 100    
Maximum Humidity 100    
Minimum Humidity 93    
Precipitation  
Precipitation 0.51 in 0.09 in - ()
Sea Level Pressure  
Sea Level Pressure 29.77 in    
Wind  
Wind Speed 14 mph ()    
Max Wind Speed 38 mph    
Max Gust Speed -    
Visibility 0.0 miles    
Events Fog , Rain , Snow , Thunderstorm    
Averages and records for this station are not official NWS values.
T = Trace of Precipitation, MM = Missing Value Source: Averaged Metar Reports

Daily Weather History Graph

Daily Weather History Graph

Search for Another Location

Airport:

Trip Planner

Search our weather history database for the weather conditions in past years. The results will help you decide how hot, cold, wet, or windy it might be!

Date:

Astronomy

Oct. 10, 2013 Rise Set
Actual Time 7:26 AM CEST 6:38 PM CEST
Civil Twilight 6:56 AM CEST 7:08 PM CEST
Nautical Twilight 6:21 AM CEST 7:43 PM CEST
Astronomical Twilight 5:46 AM CEST 8:18 PM CEST
Moon 1:15 PM CEST (10/10) 10:46 PM CEST (10/10)
Length of Visible Light 12h 12m
Length of Day
11h 12m
Waxing Crescent, 33% of the Moon is Illuminated
Oct 10
Waxing Crescent
Oct 12
First Quarter
Oct 19
Full
Oct 27
Last Quarter
Nov 3
New

Hourly Weather History & Observations

Time (CEST) Temp. Windchill Dew Point Humidity Pressure Visibility Wind Dir Wind Speed Gust Speed Precip Events Conditions
12:55 AM 39.2 °F 35.0 °F 37.4 °F 93% 30.04 in 0.0 mi SW 5.8 mph - N/A Fog Fog
1:55 AM 37.4 °F 33.8 °F 37.4 °F 100% 30.01 in 0.0 mi SW 4.6 mph - N/A Fog Fog
2:55 AM 37.4 °F 32.8 °F 37.4 °F 100% 29.98 in 0.0 mi SSW 5.8 mph - N/A Fog Fog
3:55 AM 37.4 °F 32.1 °F 37.4 °F 100% 29.95 in 0.0 mi SSW 6.9 mph - N/A Fog Fog
4:55 AM 37.4 °F 32.1 °F 37.4 °F 100% 29.92 in 0.0 mi SW 6.9 mph - N/A Fog Fog
5:00 AM 37 °F - 37 °F 100%  in 0 mi SW 6.9 mph - - Fog Heavy Fog
5:55 AM 37.4 °F 31.4 °F 37.4 °F 100% 29.92 in 0.0 mi SW 8.1 mph - N/A Fog Fog
6:55 AM 37.4 °F 30.8 °F 37.4 °F 100% 29.89 in 0.0 mi SW 9.2 mph - N/A Fog Fog
7:55 AM 37.4 °F 28.9 °F 37.4 °F 100% 29.89 in 0.0 mi WSW 13.8 mph - N/A Fog , Rain Light Rain
8:00 AM 37 °F - 37 °F 100%  in 0 mi WSW 13.8 mph - - Rain Light Rain
8:55 AM 37.4 °F 29.8 °F 37.4 °F 100% 29.86 in 0.0 mi WSW 11.5 mph - N/A Fog , Rain Rain
9:55 AM 37.4 °F 28.9 °F 37.4 °F 100% 29.83 in 0.0 mi WSW 13.8 mph - N/A Fog , Rain Rain
10:55 AM 37.4 °F 29.3 °F 37.4 °F 100% 29.80 in 0.0 mi South 12.7 mph - N/A Fog , Rain Rain
11:00 AM 37 °F - 37 °F 100%  in 0 mi South 12.7 mph - - Rain Rain
11:55 AM 37.4 °F 28.2 °F 37.4 °F 100% 29.80 in 0.0 mi SSW 16.1 mph - N/A Fog , Rain Light Rain
12:55 PM 37.4 °F 27.5 °F 37.4 °F 100% 29.77 in 0.0 mi SW 18.4 mph - N/A Fog , Rain Light Rain
1:55 PM 37.4 °F 26.4 °F 37.4 °F 100% 29.74 in 0.0 mi SW 23.0 mph - N/A Fog , Rain Rain
2:00 PM 37 °F - 37 °F 100%  in 0 mi SW 23.0 mph - - Rain Rain
2:55 PM 37.4 °F 26.1 °F 37.4 °F 100% 29.71 in 0.0 mi SW 24.2 mph - N/A Fog , Rain Rain
3:55 PM 37.4 °F 25.6 °F 37.4 °F 100% 29.68 in 0.0 mi SW 26.5 mph - N/A Fog Fog
4:55 PM 35.6 °F 21.3 °F 35.6 °F 100% 29.65 in 0.0 mi WSW 36.8 mph - N/A Fog , Rain Light Rain
5:00 PM 36 °F - 36 °F 100%  in 0 mi WSW 36.8 mph - - Rain Light Rain
5:55 PM 35.6 °F 21.1 °F 35.6 °F 100% 29.62 in 0.0 mi WSW 38.0 mph - N/A Fog , Rain Light Rain
6:55 PM 35.6 °F 21.5 °F 35.6 °F 100% 29.62 in 0.0 mi WSW 35.7 mph - N/A Fog , Rain Light Rain
7:55 PM 35.6 °F 21.1 °F 35.6 °F 100% 29.59 in 0.0 mi SW 38.0 mph - N/A Fog Fog
8:00 PM 36 °F - 36 °F 98%  in 0 mi SW 38.0 mph - - Fog Heavy Fog
8:55 PM 35.6 °F 22.5 °F 35.6 °F 100% 29.59 in 0.0 mi SW 29.9 mph - N/A Fog Fog
9:10 PM 33.8 °F 19.6 °F 33.8 °F 100% 29.59 in 0.0 mi SW 32.2 mph - N/A Snow , Thunderstorm Unknown
9:55 PM 33.8 °F 21.0 °F 33.8 °F 100% 29.59 in 0.0 mi SSW 25.3 mph - N/A Fog , Rain Rain
10:55 PM 33.8 °F 21.6 °F 33.8 °F 100% 29.59 in 0.0 mi SSW 23.0 mph - N/A Fog , Rain Light Rain
11:00 PM 35 °F - 35 °F 97%  in 0 mi SSW 23.0 mph - - Rain Light Rain
11:55 PM 35.6 °F 23.4 °F 35.6 °F 100% 29.59 in 0.0 mi South 25.3 mph - N/A Fog , Rain Light Rain